Flag for Germany Weather past 2 weeks in Ilmenau, Thuringia, Germany

Now
64 °F

Scattered clouds.


Feels Like: 64 °F
Forecast: 50 / 71 °F
Wind: 6 mph from Northwest

Location: Erfurt-Bindersleben

Current Time: Jul 31, 2015 at 3:29:17 PM

Latest Report: Jul 31, 2015 at 2:50 PM


Visibility: N/A

Pressure: 30.09 "Hg

Humidity: 40%

Dew point: 39 °F

Location of IlmenauLocation

Historic Weather in Ilmenau — Graph

°F

Ilmenau temperature yesterday

Maximum temperature yesterday: 66 °F (at 2:20 PM)
Minimum temperature yesterday: 48 °F (at 4:20 AM)
Average temperature yesterday: 57 °F

Past Weeks' High & Low Weather Summary

 TemperatureHumidityPressure
High91 °F (Jul 17, 3:50 PM)100% (Jul 19, 4:50 AM)30.12 "Hg (Jul 19, 4:50 AM)
Low46 °F (Jul 31, 3:50 AM)23% (Jul 17, 3:50 PM)29.62 "Hg (Jul 25, 4:50 AM)
Average66 °F65%29.90 "Hg
* Reported Jul 16 2:20 PM — Jul 31 2:20 PM, Ilmenau, Weather by CustomWeather, © 2015

Note: Actual official high and low records may vary slightly from our data, if they occured in-between our weather recording intervals... More about our weather records

Advertising

Ilmenau weather history for previous 24 hours

 ConditionsComfort  
Time TempWeatherWind HumidityBarometerVisibility
2:20 PM
Fri, Jul 31
63 °FScattered clouds.6 mph42%30.09 "HgN/A
1:50 PM64 °FScattered clouds.6 mph43%30.12 "HgN/A
1:20 PM63 °FScattered clouds.5 mph45%30.12 "HgN/A
12:50 PM63 °FScattered clouds.6 mph49%30.12 "HgN/A
12:20 PM61 °FPartly sunny.7 mph48%30.12 "HgN/A
11:50 AM59 °FPartly sunny.6 mph59%30.12 "HgN/A
11:20 AM59 °FPartly sunny.2 mph55%30.12 "HgN/A
10:50 AM57 °FPartly sunny.5 mph63%30.12 "HgN/A
10:20 AM55 °FPartly sunny.5 mph63%30.12 "HgN/A
9:20 AM55 °FScattered clouds.6 mph72%30.12 "HgN/A
8:50 AM54 °FScattered clouds.7 mph77%30.12 "HgN/A
8:20 AM52 °FPassing clouds.8 mph88%30.12 "HgN/A
7:50 AM50 °FSunny.8 mph94%30.12 "Hg10 mi
7:20 AM48 °FPassing clouds.7 mph94%30.09 "HgN/A
6:50 AM46 °FSunny.6 mph100%30.09 "Hg10 mi
6:20 AM46 °FClear.7 mph93%30.09 "Hg10 mi
5:50 AM46 °FFog.7 mph93%30.09 "HgN/A
5:20 AM46 °FClear.7 mph93%30.09 "Hg10 mi
4:50 AM46 °FClear.7 mph93%30.09 "Hg10 mi
4:20 AM46 °FClear.7 mph93%30.09 "Hg10 mi
3:50 AM46 °FClear.8 mph87%30.07 "Hg10 mi
3:20 AM48 °FClear.8 mph94%30.07 "Hg10 mi
2:50 AM48 °FClear.8 mph94%30.07 "Hg10 mi
2:20 AM50 °FClear.9 mph88%30.07 "Hg10 mi
1:50 AM50 °FClear.9 mph88%30.07 "Hg10 mi
1:20 AM48 °FClear.8 mph87%30.07 "Hg10 mi
12:50 AM52 °FClear.8 mph82%30.07 "Hg10 mi
12:20 AM52 °FClear.8 mph77%30.07 "Hg10 mi
11:20 PM
Thu, Jul 30
54 °FClear.8 mph72%30.04 "Hg10 mi
10:50 PM54 °FClear.9 mph72%30.04 "Hg10 mi
10:20 PM54 °FClear.8 mph72%30.04 "Hg10 mi
9:50 PM54 °FSunny.8 mph72%30.04 "Hg10 mi
9:20 PM57 °FSunny.6 mph63%30.01 "Hg10 mi
8:50 PM59 °FSunny.7 mph63%30.01 "Hg10 mi
8:20 PM59 °FSunny.9 mph59%30.01 "Hg10 mi
7:50 PM63 °FSunny.9 mph49%29.98 "Hg10 mi
7:20 PM61 °FSunny.10 mph55%29.98 "Hg10 mi
6:50 PM61 °FSunny.14 mph55%29.98 "Hg10 mi
6:20 PM63 °FSunny.12 mph49%29.98 "Hg10 mi
5:50 PM66 °FSunny.14 mph40%29.95 "Hg10 mi
5:20 PM63 °FSunny.14 mph45%29.95 "Hg10 mi
4:50 PM64 °FSunny.15 mph46%29.95 "Hg10 mi
4:20 PM66 °FSunny.14 mph37%29.95 "Hg10 mi
3:50 PM66 °FSunny.9 mph37%29.95 "Hg10 mi
3:20 PM63 °FScattered clouds.14 mph45%29.95 "HgN/A
Weather by CustomWeather, © 2015

See weather overviewHow to use our weather pages